[[{"header":{"parameterUnit":"m.s-1","parameterCategory":2,"la1":30.2991,"la2":30.254,"lo1":-89.0895,"lo2":-89.0444,"dy":0.0017,"dx":0.0017,"nx":28,"ny":28,"refTime":"2024-04-02T21:00:00:Z","depth":"0","parameterNumber":2,"parameterNumberName":"U-component_of_CURRENTS"},"data":[0,0,0,0,0,0,0,0,0,0,0,0,0,0,0,0,0,0,0,0,0,0,0,0,0,0,0,0,0,0,0,0,0,0,0,0,0,0,0,0,0,0,0,0,0,0,0,0,0,0,0,0,0,0,0,0,0,0,-0.2573,-0.2573,0,-0.2599,-0.2599,-0.2599,-0.2566,-0.2565,-0.2564,-0.2563,-0.2522,-0.2522,-0.2522,0,0,0,0,0,0,0,0,0,0,0,0,0,-0.25,-0.2501,-0.2573,-0.2573,-0.2574,-0.2599,-0.2599,-0.2599,-0.2566,-0.2565,-0.2564,-0.2563,-0.2522,-0.2522,-0.2522,0,0,0,0,0,0,0,0,0,0,0,0,0,-0.2527,-0.2502,-0.2573,-0.2562,-0.2562,-0.2599,-0.2599,-0.2599,-0.2566,-0.2565,-0.2564,-0.2562,-0.2522,-0.2522,-0.2522,-0.2549,0,0,-0.2521,-0.2521,0,0,0,0,0,0,0,0,-0.2525,-0.2529,-0.2563,-0.2563,-0.2563,-0.258,-0.2559,-0.258,-0.2567,-0.2562,-0.2563,-0.2561,-0.2538,-0.2536,-0.2542,-0.2547,-0.2545,-0.2521,-0.252,-0.252,-0.252,0,0,0,0,0,0,0,-0.2524,-0.2528,-0.258,-0.2564,-0.2564,-0.2559,-0.2561,-0.2562,-0.2554,-0.2562,-0.2561,-0.2568,-0.2537,-0.2542,-0.254,-0.2544,-0.2521,-0.252,-0.252,-0.252,-0.2556,-0.2557,0,0,0,0,0,0,-0.2527,-0.2527,-0.258,-0.2581,-0.2543,-0.2561,-0.2563,-0.2574,-0.2556,-0.2553,-0.2569,-0.2567,-0.2543,-0.2541,-0.2539,-0.2556,-0.252,-0.252,-0.252,-0.2555,-0.2556,-0.2557,0,0,0,0,0,0,-0.2526,-0.2532,-0.2579,-0.2556,-0.2562,-0.2564,-0.2576,-0.2575,-0.2575,-0.2563,-0.2557,-0.257,-0.2542,-0.2539,-0.2539,-0.2554,-0.252,-0.252,-0.2553,-0.2555,-0.2557,-0.2599,0,0,0,0,0,0,-0.2524,-0.2531,-0.2536,-0.2557,-0.2564,-0.2599,-0.2578,-0.2577,-0.2583,-0.258,-0.2562,-0.2557,-0.2541,-0.2539,-0.2538,-0.2553,-0.2519,-0.2552,-0.2554,-0.2556,-0.2596,-0.2602,-0.2607,0,0,0,0,0,-0.2521,-0.2532,-0.2536,-0.2542,-0.2571,-0.26,-0.2603,-0.2598,-0.2585,-0.259,-0.2577,-0.2557,-0.2552,-0.254,-0.2539,-0.2554,-0.2551,-0.2554,-0.2556,-0.2594,-0.2601,-0.2607,0,0,0,0,0,0,-0.2498,-0.2531,-0.2535,-0.2554,-0.2577,-0.2596,-0.26,-0.2602,-0.2599,-0.2588,-0.2571,-0.2566,-0.2573,-0.2562,-0.2549,-0.2572,-0.2549,-0.2551,-0.2578,-0.2585,-0.259,-0.258,-0.2519,0,0,0,0,0,-0.25,-0.2515,-0.2548,-0.2561,-0.2574,-0.2589,-0.2598,-0.26,-0.2604,-0.2601,-0.2592,-0.2584,-0.2587,-0.2582,-0.2581,-0.2594,-0.2564,-0.2604,-0.2609,-0.2614,-0.2606,-0.2586,-0.2588,-0.2566,-0.2566,-0.2566,0,0,-0.2492,-0.2514,-0.252,-0.2557,-0.2571,-0.26,-0.2589,-0.2607,-0.2625,-0.2598,-0.2609,-0.2602,-0.2595,-0.2608,-0.261,-0.2596,-0.2604,-0.2617,-0.2621,-0.2611,-0.2588,-0.259,-0.2592,-0.2567,-0.2567,-0.2567,0,0,-0.2493,-0.2509,-0.2526,-0.2553,-0.2585,-0.26,-0.2608,-0.2633,-0.2634,-0.2654,-0.2638,-0.2637,-0.2645,-0.2639,-0.2639,-0.2675,-0.2635,-0.2681,-0.2697,-0.2678,-0.2679,-0.2679,-0.2639,-0.2635,-0.2682,-0.2682,-0.2682,0,-0.2484,-0.2512,-0.2534,-0.2566,-0.2587,-0.2604,-0.2631,-0.2648,-0.2666,-0.2668,-0.2658,-0.2665,-0.2659,-0.267,-0.2684,-0.2685,-0.266,-0.2672,-0.2683,-0.2683,-0.2682,-0.2641,-0.2636,-0.2684,-0.2684,-0.2684,-0.2683,0,-0.2505,-0.2531,-0.2544,-0.2591,-0.2618,-0.2641,-0.2678,-0.2693,-0.2697,-0.2707,-0.2715,-0.2708,-0.2705,-0.2715,-0.2711,-0.2716,-0.2694,-0.2693,-0.2662,-0.2687,-0.2642,-0.2636,-0.2687,-0.2687,-0.2686,-0.2685,0,0,-0.2466,-0.2544,-0.2545,-0.2571,-0.2631,-0.2652,-0.2692,-0.2723,-0.2734,-0.2747,-0.2753,-0.2765,-0.275,-0.2748,-0.2742,-0.273,-0.2712,-0.2714,-0.2712,-0.2666,-0.2652,-0.2569,-0.2554,-0.2713,-0.2713,-0.2713,-0.2618,0,-0.2469,-0.2526,-0.2566,-0.2613,-0.2644,-0.2683,-0.272,-0.275,-0.2764,-0.2775,-0.2768,-0.2772,-0.2768,-0.2762,-0.2753,-0.273,-0.2701,-0.2736,-0.2641,-0.2638,-0.2554,-0.2547,-0.2465,-0.2368,-0.2612,-0.2611,-0.2611,0,-0.2468,-0.2508,-0.2554,-0.2624,-0.264,-0.2671,-0.2714,-0.2749,-0.2778,-0.2788,-0.2789,-0.2785,-0.2778,-0.2766,-0.2718,-0.2742,-0.2695,-0.2668,-0.2663,-0.2564,-0.2545,-0.2385,-0.2349,-0.234,-0.2602,-0.2603,-0.2603,0,-0.2413,-0.2493,-0.2523,-0.2549,-0.2634,-0.2652,-0.2692,-0.2738,-0.276,-0.2783,-0.2791,-0.2786,-0.2771,-0.2734,-0.2681,-0.2701,-0.2609,-0.2627,-0.2499,-0.2492,-0.239,-0.2374,-0.2324,-0.2568,-0.2569,-0.2569,-0.2569,0,-0.2389,-0.241,-0.2498,-0.251,-0.2546,-0.2618,-0.2646,-0.2687,-0.2733,-0.2741,-0.278,-0.2768,-0.2763,-0.2716,-0.2671,-0.2556,-0.2594,-0.2485,-0.2459,-0.2402,-0.2389,-0.2351,-0.2376,-0.2565,-0.2566,-0.2567,-0.2567,0,-0.2312,-0.237,-0.241,-0.2495,-0.2518,-0.2538,-0.262,-0.2637,-0.2697,-0.2706,-0.2712,-0.2744,-0.2682,-0.2648,-0.2573,-0.2523,-0.2388,-0.2378,-0.2299,-0.2266,-0.2147,-0.2177,-0.2074,-0.2015,-0.2229,-0.2226,-0.2224,0,-0.2277,-0.2289,-0.2376,-0.2391,-0.2422,-0.2471,-0.25,-0.2594,-0.2618,-0.267,-0.2662,-0.2632,-0.2576,-0.2448,-0.2356,-0.2238,-0.2253,-0.2102,-0.2125,-0.211,-0.2126,-0.2154,-0.2116,-0.2007,-0.2003,-0.2,-0.1998,0,-0.2196,-0.2226,-0.2249,-0.2294,-0.2324,-0.2363,-0.2418,-0.2438,-0.2525,-0.2539,-0.2521,-0.248,-0.2382,-0.2233,-0.2105,-0.2032,-0.2063,-0.2032,-0.2042,-0.1959,-0.1959,-0.19,-0.2099,-0.197,-0.1972,-0.1974,-0.1976,-0.1977,-0.2114,-0.2117,-0.2147,-0.2169,-0.2207,-0.2214,-0.2195,-0.2261,-0.2266,-0.2245,-0.2309,-0.2212,-0.2153,-0.196,-0.189,-0.1768,-0.1823,-0.1732,-0.177,-0.18,-0.174,-0.1861,-0.1693,-0.1695,-0.1696,-0.1696,-0.1697,0,-0.1997,-0.2003,-0.2023,-0.2032,-0.2006,-0.2074,-0.2096,-0.2047,-0.1996,-0.2022,-0.1977,-0.1895,-0.177,-0.1734,-0.1628,-0.1549,-0.153,-0.152,-0.1563,-0.1536,-0.1651,-0.1639,-0.1421,-0.1421,-0.1421,-0.1421,-0.1421,-0.1421,-0.1929,-0.189,-0.1898,-0.1805,-0.181,-0.172,-0.1693,-0.1652,-0.1646,-0.1548,-0.1519,-0.1524,-0.1542,-0.165,-0.1556,-0.1479,-0.1462,-0.14,-0.1426,-0.1552,-0.1576,-0.16,-0.1594,-0.137,-0.137,-0.1263,-0.1262,-0.1262]},{"header":{"parameterUnit":"m.s-1","parameterCategory":2,"la1":30.2991,"la2":30.254,"lo1":-89.0895,"lo2":-89.0444,"dy":0.0017,"dx":0.0017,"nx":28,"ny":28,"refTime":"2024-04-02T21:00:00:Z","depth":"0","parameterNumber":3,"parameterNumberName":"V-component_of_CURRENTS"},"data":[0,0,0,0,0,0,0,0,0,0,0,0,0,0,0,0,0,0,0,0,0,0,0,0,0,0,0,0,0,0,0,0,0,0,0,0,0,0,0,0,0,0,0,0,0,0,0,0,0,0,0,0,0,0,0,0,0,0,-0.0208,-0.0207,0,-0.0129,-0.0128,-0.0127,-0.0068,-0.0067,-0.0067,-0.0067,0.0057,0.0059,0.0062,0,0,0,0,0,0,0,0,0,0,0,0,0,-0.0261,-0.026,-0.0208,-0.0207,-0.0206,-0.0129,-0.0128,-0.0127,-0.0068,-0.0067,-0.0067,-0.0066,0.0056,0.0059,0.0062,0,0,0,0,0,0,0,0,0,0,0,0,0,-0.0215,-0.026,-0.0208,-0.0168,-0.0164,-0.0129,-0.0128,-0.0126,-0.0068,-0.0067,-0.0067,-0.0066,0.0054,0.0059,0.0063,0.0075,0,0,0.0076,0.0078,0,0,0,0,0,0,0,0,-0.0218,-0.0213,-0.0175,-0.0171,-0.0166,-0.0108,-0.0101,-0.0057,-0.0068,-0.0104,-0.0067,-0.0066,0.0005,0.0013,0.0027,0.0081,0.0086,0.0076,0.0079,0.0081,0.0082,0,0,0,0,0,0,0,-0.0221,-0.0216,-0.0176,-0.0174,-0.0168,-0.0138,-0.0131,-0.0093,-0.0053,-0.0101,-0.0096,-0.0089,0.0008,0.0022,0.003,0.0088,0.0076,0.008,0.0083,0.0084,0.0173,0.0173,0,0,0,0,0,0,-0.0235,-0.0219,-0.0178,-0.0174,-0.0191,-0.0138,-0.013,-0.0127,-0.0054,-0.0043,-0.0089,-0.0086,0.0015,0.0025,0.0035,0.0062,0.0081,0.0085,0.0087,0.0173,0.0173,0.0173,0,0,0,0,0,0,-0.0237,-0.0233,-0.0182,-0.0195,-0.0186,-0.0138,-0.0135,-0.0126,-0.011,-0.0047,-0.0034,-0.0083,0.0016,0.0029,0.007,0.0067,0.0087,0.009,0.0173,0.0173,0.0173,0.0112,0,0,0,0,0,0,-0.0239,-0.0234,-0.0239,-0.0196,-0.0186,-0.0169,-0.0135,-0.0125,-0.0106,-0.0102,-0.0037,-0.0025,0.0017,0.0064,0.0075,0.0073,0.0094,0.0174,0.0173,0.0173,0.0114,0.011,0.0106,0,0,0,0,0,-0.0241,-0.0254,-0.024,-0.0235,-0.0194,-0.0169,-0.0162,-0.0124,-0.0107,-0.0106,-0.0057,-0.0027,0.0069,0.0067,0.008,0.008,0.0174,0.0173,0.0173,0.0116,0.0111,0.0106,0,0,0,0,0,0,-0.0282,-0.0248,-0.0232,-0.0234,-0.0207,-0.016,-0.0157,-0.013,-0.0092,-0.0087,-0.0026,-0.001,0.0023,0.0059,0.0055,0.0104,0.0125,0.0127,0.0077,0.0073,0.0068,0.006,0.0097,0,0,0,0,0,-0.0294,-0.0294,-0.0255,-0.0258,-0.0248,-0.0204,-0.019,-0.0165,-0.0125,-0.0107,-0.0061,-0.0012,0.003,0.0056,0.0096,0.0125,0.0171,0.0132,0.0128,0.0124,0.0125,0.0191,0.0193,0.0171,0.0171,0.0171,0,0,-0.031,-0.0293,-0.0292,-0.0266,-0.0243,-0.0236,-0.0194,-0.018,-0.0168,-0.01,-0.0072,-0.0027,0.0033,0.0066,0.0084,0.0097,0.0153,0.0123,0.0119,0.0123,0.0191,0.0193,0.0195,0.0171,0.0171,0.0171,0,0,-0.0349,-0.0329,-0.0344,-0.0324,-0.0296,-0.0266,-0.0265,-0.0221,-0.0196,-0.0164,-0.0112,-0.0067,-0.0008,0.0041,0.0072,0.0068,0.0125,0.0075,0.0053,0.0116,0.0119,0.0122,0.0179,0.0187,0.0077,0.0076,0.0076,0,-0.0372,-0.0382,-0.0345,-0.0351,-0.0338,-0.0284,-0.0292,-0.0259,-0.0205,-0.018,-0.0166,-0.0064,-0.0018,0.004,0.0037,0.0059,0.0102,0.0066,0.0111,0.0115,0.0119,0.0177,0.0187,0.0073,0.0074,0.0074,0.0074,0,-0.0417,-0.0424,-0.0431,-0.0419,-0.0398,-0.0398,-0.0347,-0.0323,-0.0286,-0.0242,-0.0184,-0.0115,-0.0051,-0.0032,0.0002,0.0052,0.0076,0.0094,0.0123,0.0118,0.0179,0.0191,0.0069,0.007,0.0071,0.0072,0,0,-0.0472,-0.0467,-0.047,-0.0476,-0.0434,-0.0425,-0.0399,-0.0356,-0.0331,-0.0273,-0.0232,-0.0159,-0.0112,-0.0074,-0.0019,0.0037,0.0097,0.0071,0.0076,0.0125,0.0238,0.0277,0.0294,0.0125,0.0127,0.0128,0.0268,0,-0.0522,-0.0556,-0.0531,-0.0552,-0.056,-0.0499,-0.0476,-0.0423,-0.0365,-0.031,-0.0223,-0.0169,-0.013,-0.0098,-0.0035,0.0069,0.0126,0.0058,0.0238,0.0244,0.0278,0.0308,0.0351,0.0481,0.028,0.0282,0.0283,0,-0.0574,-0.0587,-0.0623,-0.0611,-0.0608,-0.0606,-0.0549,-0.0522,-0.0422,-0.0373,-0.0294,-0.0221,-0.0125,-0.0098,0.0079,0.0034,0.0125,0.0204,0.0211,0.0279,0.0305,0.0456,0.0511,0.0652,0.0302,0.03,0.0299,0,-0.0632,-0.065,-0.0683,-0.068,-0.0654,-0.0652,-0.0629,-0.0543,-0.0509,-0.041,-0.0365,-0.0243,-0.0168,-0.0044,0.0117,0.01,0.0316,0.0316,0.0439,0.0443,0.0531,0.054,0.0744,0.0435,0.0434,0.0434,0.0434,0,-0.0689,-0.0717,-0.0717,-0.0735,-0.0761,-0.071,-0.0706,-0.0658,-0.057,-0.0516,-0.0407,-0.0327,-0.015,-0.0004,0.0121,0.0328,0.0325,0.0449,0.0489,0.051,0.0515,0.0683,0.0721,0.0439,0.0438,0.0437,0.0436,0,-0.0749,-0.0751,-0.0794,-0.0793,-0.0795,-0.0811,-0.0776,-0.0757,-0.0664,-0.0586,-0.0557,-0.0373,-0.0173,0.001,0.0239,0.0347,0.0621,0.0592,0.0602,0.064,0.0865,0.0896,0.1119,0.1213,0.0748,0.075,0.0752,0,-0.0785,-0.0814,-0.0853,-0.0881,-0.089,-0.0899,-0.0897,-0.0821,-0.0781,-0.0603,-0.0564,-0.0354,-0.0179,0.0171,0.0399,0.0643,0.0733,0.0808,0.078,0.0902,0.0967,0.0978,0.104,0.0876,0.0879,0.0881,0.0882,0,-0.0848,-0.0867,-0.0902,-0.0963,-0.0989,-0.1004,-0.0986,-0.0966,-0.0842,-0.0735,-0.0544,-0.0387,-0.003,0.0294,0.06,0.0733,0.0915,0.0856,0.0998,0.1101,0.1114,0.1214,0.0748,0.09,0.0899,0.0897,0.0896,0.0896,-0.0893,-0.094,-0.0988,-0.1041,-0.1071,-0.1081,-0.1072,-0.1002,-0.0909,-0.0694,-0.0548,-0.0238,0.02,0.0655,0.0813,0.1149,0.1087,0.1236,0.1269,0.1273,0.1353,0.0917,0.1098,0.1097,0.1097,0.1096,0.1096,0,-0.0941,-0.0991,-0.1056,-0.1111,-0.1143,-0.1139,-0.1104,-0.1034,-0.0896,-0.0653,-0.0427,0.0119,0.0548,0.0935,0.1388,0.1558,0.159,0.1632,0.1671,0.1721,0.1369,0.1363,0.1592,0.1592,0.1592,0.1592,0.1591,0.1591,-0.0968,-0.1044,-0.1079,-0.1147,-0.1178,-0.1173,-0.1142,-0.0993,-0.0798,-0.0378,-0.0021,0.0255,0.0781,0.1485,0.1905,0.1931,0.2084,0.2051,0.2137,0.1898,0.1863,0.183,0.1838,0.2162,0.2163,0.2492,0.2495,0.2498]}],[{"header":{"parameterUnit":"m.s-1","parameterCategory":2,"la1":30.2991,"la2":30.254,"lo1":-89.0895,"lo2":-89.0444,"dy":0.0017,"dx":0.0017,"nx":28,"ny":28,"refTime":"2024-04-02T21:00:00:Z","depth":"2","parameterNumber":2,"parameterNumberName":"U-component_of_CURRENTS"},"data":[0,0,0,0,0,0,0,0,0,0,0,0,0,0,0,0,0,0,0,0,0,0,0,0,0,0,0,0,0,0,0,0,0,0,0,0,0,0,0,0,0,0,0,0,0,0,0,0,0,0,0,0,0,0,0,0,0,0,-0.2345,-0.2346,0,-0.2373,-0.2373,-0.2373,-0.235,-0.2349,-0.2349,-0.2348,-0.2319,-0.2319,-0.2319,0,0,0,0,0,0,0,0,0,0,0,0,0,-0.2274,-0.2275,-0.2345,-0.2346,-0.2346,-0.2373,-0.2373,-0.2373,-0.235,-0.2349,-0.2348,-0.2348,-0.232,-0.2319,-0.2319,0,0,0,0,0,0,0,0,0,0,0,0,0,-0.2301,-0.2276,-0.2345,-0.234,-0.234,-0.2373,-0.2373,-0.2373,-0.235,-0.2349,-0.2348,-0.2347,-0.232,-0.2319,-0.2319,-0.234,0,0,-0.2319,-0.2319,0,0,0,0,0,0,0,0,-0.23,-0.2303,-0.234,-0.234,-0.234,-0.2359,-0.2338,-0.236,-0.2351,-0.2344,-0.2348,-0.2347,-0.233,-0.2329,-0.2334,-0.2339,-0.2338,-0.2319,-0.2319,-0.2319,-0.2319,0,0,0,0,0,0,0,-0.2298,-0.2302,-0.2353,-0.2341,-0.2341,-0.2337,-0.234,-0.2342,-0.234,-0.2344,-0.2343,-0.2351,-0.2329,-0.2334,-0.2333,-0.2338,-0.2319,-0.2319,-0.2319,-0.2319,-0.2357,-0.2358,0,0,0,0,0,0,-0.2301,-0.2301,-0.2353,-0.2354,-0.232,-0.234,-0.2342,-0.2352,-0.2341,-0.2339,-0.2352,-0.235,-0.2335,-0.2333,-0.2332,-0.2356,-0.2319,-0.2319,-0.2319,-0.2356,-0.2358,-0.2359,0,0,0,0,0,0,-0.23,-0.2306,-0.2351,-0.233,-0.2336,-0.2342,-0.2354,-0.2353,-0.2358,-0.2348,-0.2344,-0.2357,-0.2334,-0.2332,-0.2336,-0.2354,-0.2319,-0.2319,-0.2355,-0.2357,-0.2358,-0.2404,0,0,0,0,0,0,-0.2297,-0.2305,-0.2311,-0.233,-0.2337,-0.2373,-0.2355,-0.2355,-0.2366,-0.2363,-0.2351,-0.2347,-0.2333,-0.2337,-0.2336,-0.2353,-0.2318,-0.2354,-0.2356,-0.2358,-0.2401,-0.2407,-0.2412,0,0,0,0,0,-0.2295,-0.2307,-0.2312,-0.2318,-0.2347,-0.2374,-0.2377,-0.2376,-0.2367,-0.2375,-0.2366,-0.2348,-0.2349,-0.2337,-0.2337,-0.2354,-0.2353,-0.2355,-0.2357,-0.2398,-0.2405,-0.2412,0,0,0,0,0,0,-0.2276,-0.2307,-0.2312,-0.2332,-0.2354,-0.2371,-0.2378,-0.2382,-0.2383,-0.2377,-0.2361,-0.2358,-0.2369,-0.2359,-0.2346,-0.2372,-0.2349,-0.2351,-0.238,-0.2387,-0.2392,-0.2384,-0.2318,0,0,0,0,0,-0.2279,-0.2294,-0.2325,-0.2339,-0.2352,-0.2368,-0.2378,-0.2382,-0.2389,-0.2388,-0.2383,-0.2378,-0.2382,-0.238,-0.238,-0.2395,-0.2366,-0.2406,-0.2412,-0.2417,-0.241,-0.2392,-0.2395,-0.2367,-0.2367,-0.2367,0,0,-0.2274,-0.2294,-0.2302,-0.2337,-0.2351,-0.2379,-0.237,-0.239,-0.241,-0.2385,-0.2401,-0.2397,-0.2391,-0.2406,-0.241,-0.2396,-0.241,-0.242,-0.2424,-0.2415,-0.2395,-0.2397,-0.24,-0.2368,-0.2368,-0.2368,0,0,-0.2278,-0.2294,-0.2311,-0.2337,-0.2369,-0.2384,-0.2393,-0.2418,-0.2422,-0.2445,-0.2432,-0.2435,-0.2445,-0.244,-0.244,-0.2477,-0.2441,-0.2484,-0.2503,-0.2486,-0.2488,-0.2489,-0.2451,-0.2449,-0.2485,-0.2485,-0.2485,0,-0.2272,-0.2299,-0.232,-0.2351,-0.2371,-0.2389,-0.2416,-0.2434,-0.2455,-0.2459,-0.2453,-0.2464,-0.246,-0.2472,-0.2487,-0.2488,-0.2465,-0.2478,-0.2492,-0.2492,-0.2492,-0.2454,-0.245,-0.2488,-0.2488,-0.2487,-0.2487,0,-0.2293,-0.2319,-0.2333,-0.2377,-0.2404,-0.2428,-0.2463,-0.2481,-0.249,-0.2501,-0.2514,-0.2509,-0.251,-0.252,-0.2516,-0.2525,-0.2504,-0.2501,-0.2471,-0.2498,-0.2456,-0.2451,-0.2491,-0.2491,-0.249,-0.2489,0,0,-0.2261,-0.2334,-0.2336,-0.2361,-0.2419,-0.2439,-0.248,-0.2512,-0.2526,-0.2543,-0.2553,-0.2568,-0.2557,-0.2556,-0.2552,-0.2542,-0.253,-0.2528,-0.2526,-0.2483,-0.2477,-0.2396,-0.2383,-0.2532,-0.2531,-0.2531,-0.2444,0,-0.2266,-0.232,-0.2358,-0.2403,-0.2433,-0.2472,-0.2508,-0.254,-0.2557,-0.2572,-0.2569,-0.2578,-0.2575,-0.2574,-0.2567,-0.2545,-0.2521,-0.2552,-0.2463,-0.246,-0.2379,-0.2376,-0.2226,-0.2131,-0.244,-0.2439,-0.2438,0,-0.2268,-0.2304,-0.2349,-0.2416,-0.2431,-0.2463,-0.2508,-0.2542,-0.2575,-0.2588,-0.2595,-0.2594,-0.2593,-0.2582,-0.2541,-0.2563,-0.252,-0.2494,-0.249,-0.2392,-0.237,-0.2156,-0.2111,-0.243,-0.2431,-0.2431,-0.2432,0,-0.2218,-0.2294,-0.2322,-0.2347,-0.2427,-0.2448,-0.2488,-0.2536,-0.2558,-0.2588,-0.2599,-0.26,-0.2589,-0.2557,-0.251,-0.2528,-0.2445,-0.246,-0.2337,-0.233,-0.2172,-0.2151,-0.2408,-0.2408,-0.2408,-0.2408,-0.2409,0,-0.2197,-0.2218,-0.2301,-0.2313,-0.2348,-0.2418,-0.2449,-0.249,-0.2539,-0.2549,-0.2593,-0.2584,-0.2584,-0.2542,-0.2502,-0.2394,-0.2432,-0.2326,-0.2301,-0.2183,-0.2166,-0.2405,-0.2406,-0.2405,-0.2406,-0.2406,-0.2407,0,-0.2126,-0.2181,-0.222,-0.2301,-0.2322,-0.2344,-0.2425,-0.2444,-0.2507,-0.2519,-0.2528,-0.2562,-0.2507,-0.2479,-0.2411,-0.2363,-0.2284,-0.2229,-0.2082,-0.2041,-0.2183,-0.2188,-0.2093,-0.2089,-0.2086,-0.2083,-0.2081,0,-0.2095,-0.2107,-0.2189,-0.2203,-0.2234,-0.2283,-0.2311,-0.2403,-0.2427,-0.2485,-0.2477,-0.2456,-0.2402,-0.2285,-0.2194,-0.2085,-0.2165,-0.1892,-0.1901,-0.2164,-0.215,-0.216,-0.2168,-0.1706,-0.1701,-0.1697,-0.1693,0,-0.2019,-0.2048,-0.207,-0.2113,-0.2142,-0.2177,-0.2229,-0.2248,-0.2335,-0.2349,-0.2335,-0.2299,-0.2207,-0.2026,-0.1907,-0.1832,-0.1908,-0.1804,-0.2099,-0.1819,-0.1795,-0.1784,-0.1805,-0.1657,-0.166,-0.1663,-0.1665,-0.1666,-0.1944,-0.1946,-0.1973,-0.1994,-0.203,-0.2032,-0.2012,-0.2073,-0.2073,-0.2048,-0.2115,-0.1996,-0.1975,-0.1697,-0.1595,-0.1515,-0.1645,-0.1583,-0.1598,-0.1616,-0.1597,-0.157,-0.1384,-0.1386,-0.1388,-0.1389,-0.1391,0,-0.1833,-0.1838,-0.1855,-0.1862,-0.1835,-0.19,-0.1916,-0.1857,-0.18,-0.1808,-0.176,-0.153,-0.1423,-0.1398,-0.1219,-0.1188,-0.1197,-0.1143,-0.1163,-0.1199,-0.1232,-0.1196,-0.0875,-0.0873,-0.0872,-0.087,0,0,-0.1768,-0.1728,-0.1733,-0.1641,-0.1647,-0.1554,-0.1525,-0.1463,-0.1433,-0.1297,-0.1229,-0.1323,-0.1351,-0.1107,-0.1058,-0.0936,-0.1058,-0.0888,-0.1302,-0.1361,-0.1392,-0.1483,-0.1467,0,0,0,0,0]},{"header":{"parameterUnit":"m.s-1","parameterCategory":2,"la1":30.2991,"la2":30.254,"lo1":-89.0895,"lo2":-89.0444,"dy":0.0017,"dx":0.0017,"nx":28,"ny":28,"refTime":"2024-04-02T21:00:00:Z","depth":"2","parameterNumber":3,"parameterNumberName":"V-component_of_CURRENTS"},"data":[0,0,0,0,0,0,0,0,0,0,0,0,0,0,0,0,0,0,0,0,0,0,0,0,0,0,0,0,0,0,0,0,0,0,0,0,0,0,0,0,0,0,0,0,0,0,0,0,0,0,0,0,0,0,0,0,0,0,-0.0294,-0.0294,0,-0.022,-0.0219,-0.0218,-0.0164,-0.0163,-0.0163,-0.0162,-0.0047,-0.0044,-0.0041,0,0,0,0,0,0,0,0,0,0,0,0,0,-0.0346,-0.0346,-0.0294,-0.0293,-0.0293,-0.022,-0.0219,-0.0218,-0.0164,-0.0163,-0.0163,-0.0162,-0.0048,-0.0044,-0.0041,0,0,0,0,0,0,0,0,0,0,0,0,0,-0.0303,-0.0345,-0.0294,-0.0257,-0.0253,-0.0221,-0.0219,-0.0218,-0.0164,-0.0163,-0.0163,-0.0162,-0.0049,-0.0045,-0.0041,-0.0029,0,0,-0.0028,-0.0027,0,0,0,0,0,0,0,0,-0.0305,-0.0301,-0.0263,-0.026,-0.0255,-0.0201,-0.0195,-0.0153,-0.0164,-0.0197,-0.0162,-0.0162,-0.0095,-0.0087,-0.0075,-0.0023,-0.0018,-0.0028,-0.0026,-0.0024,-0.0023,0,0,0,0,0,0,0,-0.0308,-0.0303,-0.0264,-0.0263,-0.0257,-0.0229,-0.0223,-0.0187,-0.0149,-0.0194,-0.019,-0.0183,-0.0092,-0.0079,-0.0071,-0.0016,-0.0028,-0.0025,-0.0022,-0.002,0.0066,0.0066,0,0,0,0,0,0,-0.0321,-0.0306,-0.0267,-0.0262,-0.028,-0.0229,-0.0222,-0.0219,-0.0151,-0.014,-0.0184,-0.0181,-0.0086,-0.0076,-0.0067,-0.0038,-0.0024,-0.002,-0.0018,0.0066,0.0066,0.0066,0,0,0,0,0,0,-0.0323,-0.0319,-0.027,-0.0283,-0.0275,-0.0229,-0.0226,-0.0217,-0.0202,-0.0143,-0.0132,-0.0177,-0.0085,-0.0073,-0.0032,-0.0033,-0.0018,-0.0015,0.0066,0.0066,0.0066,0.0014,0,0,0,0,0,0,-0.0325,-0.032,-0.0324,-0.0284,-0.0274,-0.0256,-0.0226,-0.0216,-0.0199,-0.0194,-0.0133,-0.0122,-0.0084,-0.0038,-0.0028,-0.0027,-0.0011,0.0066,0.0066,0.0066,0.0016,0.0012,0.0009,0,0,0,0,0,-0.0327,-0.0338,-0.0325,-0.032,-0.0281,-0.0257,-0.0249,-0.0214,-0.0199,-0.0197,-0.0152,-0.0124,-0.0033,-0.0035,-0.0023,-0.0021,0.0066,0.0066,0.0066,0.0017,0.0013,0.0009,0,0,0,0,0,0,-0.0363,-0.0332,-0.0317,-0.0318,-0.0292,-0.0248,-0.0245,-0.022,-0.0183,-0.0178,-0.0122,-0.0107,-0.0074,-0.0042,-0.0046,0.0002,0.002,0.0022,-0.0021,-0.0025,-0.0028,-0.0038,-0.0008,0,0,0,0,0,-0.0374,-0.0374,-0.0337,-0.0339,-0.0329,-0.0288,-0.0275,-0.0251,-0.0213,-0.0196,-0.0153,-0.0107,-0.0067,-0.0042,-0.0005,0.0024,0.0065,0.0032,0.0028,0.0025,0.0025,0.0087,0.009,0.0065,0.0065,0.0065,0,0,-0.0389,-0.0372,-0.0371,-0.0346,-0.0324,-0.0316,-0.0279,-0.0264,-0.0251,-0.019,-0.0162,-0.0119,-0.0063,-0.0031,-0.0013,-0.0002,0.0053,0.0025,0.0022,0.0024,0.0087,0.009,0.0092,0.0065,0.0065,0.0065,0,0,-0.0423,-0.0404,-0.0417,-0.0397,-0.037,-0.0342,-0.0341,-0.0299,-0.0275,-0.0244,-0.0196,-0.0152,-0.0097,-0.005,-0.0021,-0.0022,0.0029,-0.0015,-0.0034,0.0026,0.0028,0.0031,0.0083,0.0091,-0.0013,-0.0013,-0.0014,0,-0.0443,-0.0452,-0.0417,-0.0421,-0.0409,-0.0358,-0.0365,-0.0333,-0.0282,-0.0259,-0.0245,-0.0148,-0.0104,-0.0048,-0.005,-0.0029,0.001,-0.0023,0.0021,0.0025,0.0029,0.0081,0.0091,-0.0016,-0.0016,-0.0015,-0.0015,0,-0.0482,-0.0488,-0.0494,-0.0481,-0.0462,-0.046,-0.0412,-0.0389,-0.0354,-0.0314,-0.0257,-0.0191,-0.0131,-0.0112,-0.0079,-0.0031,-0.0011,0.0006,0.0031,0.0028,0.0084,0.0094,-0.002,-0.0019,-0.0018,-0.0017,0,0,-0.0532,-0.0526,-0.0528,-0.0534,-0.0494,-0.0485,-0.046,-0.0419,-0.0397,-0.034,-0.0302,-0.0229,-0.0185,-0.0149,-0.0097,-0.0043,0.0015,-0.0013,-0.0008,0.0036,0.0144,0.0177,0.0192,0.0041,0.0043,0.0044,0.017,0,-0.0576,-0.0606,-0.0583,-0.0601,-0.0609,-0.0553,-0.0531,-0.0481,-0.0428,-0.0377,-0.0293,-0.0241,-0.0201,-0.0171,-0.011,-0.0013,0.0042,-0.0021,0.0142,0.0147,0.0175,0.0205,0.0166,0.0277,0.0181,0.0183,0.0184,0,-0.0623,-0.0635,-0.0668,-0.0659,-0.0656,-0.0654,-0.0604,-0.0578,-0.0485,-0.044,-0.0363,-0.0294,-0.02,-0.0172,-0.0006,-0.0048,0.0039,0.0113,0.012,0.0177,0.02,0.0266,0.0301,0.0203,0.0201,0.02,0.0199,0,-0.0678,-0.0694,-0.0726,-0.0722,-0.0699,-0.0698,-0.0678,-0.0599,-0.0569,-0.0476,-0.0437,-0.0317,-0.0247,-0.0127,0.0026,0.0012,0.0212,0.0214,0.0327,0.033,0.0343,0.0344,0.0327,0.0327,0.0327,0.0327,0.0326,0,-0.0731,-0.0757,-0.0758,-0.0775,-0.0802,-0.0755,-0.0754,-0.0711,-0.0631,-0.0584,-0.0477,-0.0405,-0.0231,-0.0094,0.0027,0.022,0.0218,0.0335,0.0371,0.0323,0.0321,0.0291,0.0285,0.0331,0.033,0.0329,0.0328,0,-0.0787,-0.0789,-0.0831,-0.0831,-0.0834,-0.0851,-0.0823,-0.0809,-0.0724,-0.0657,-0.0629,-0.0456,-0.0268,-0.0091,0.0127,0.0231,0.0398,0.0462,0.0391,0.0417,0.0472,0.0462,0.06,0.0602,0.0604,0.0606,0.0607,0,-0.0821,-0.0849,-0.0888,-0.0917,-0.0925,-0.0937,-0.0939,-0.0871,-0.0838,-0.0678,-0.0645,-0.0449,-0.0287,0.0042,0.0255,0.0486,0.0473,0.0572,0.054,0.0482,0.0504,0.049,0.0478,0.0536,0.0537,0.0537,0.0538,0,-0.0881,-0.0901,-0.0934,-0.0996,-0.1025,-0.1043,-0.1031,-0.1016,-0.0904,-0.081,-0.0638,-0.0494,-0.0168,0.0099,0.0388,0.0504,0.053,0.0592,0.0574,0.0468,0.0431,0.0449,0.0437,0.0543,0.0542,0.0542,0.0542,0.0542,-0.0926,-0.0973,-0.102,-0.1073,-0.1107,-0.1122,-0.1118,-0.1059,-0.0979,-0.0794,-0.0653,-0.0391,-0.0152,0.0279,0.0465,0.0629,0.0626,0.0653,0.0647,0.0642,0.0606,0.0575,0.0707,0.0708,0.0708,0.0708,0.0708,0,-0.0975,-0.1024,-0.1088,-0.1145,-0.1181,-0.1179,-0.1154,-0.1098,-0.0979,-0.0781,-0.0577,-0.0282,0.0025,0.0269,0.0545,0.0703,0.0666,0.0708,0.0628,0.0622,0.0617,0.0577,0.0672,0.0673,0.0673,0.0673,0,0,-0.1003,-0.1077,-0.1112,-0.1185,-0.1218,-0.1224,-0.1199,-0.1078,-0.0921,-0.0709,-0.0499,-0.0238,0.006,0.0245,0.043,0.0568,0.0547,0.0565,0.0576,0.0453,0.0446,0.0567,0.0497,0,0,0,0,0]}],[{"header":{"parameterUnit":"m.s-1","parameterCategory":2,"la1":30.2991,"la2":30.254,"lo1":-89.0895,"lo2":-89.0444,"dy":0.0017,"dx":0.0017,"nx":28,"ny":28,"refTime":"2024-04-02T21:00:00:Z","depth":"4","parameterNumber":2,"parameterNumberName":"U-component_of_CURRENTS"},"data":[0,0,0,0,0,0,0,0,0,0,0,0,0,0,0,0,0,0,0,0,0,0,0,0,0,0,0,0,0,0,0,0,0,0,0,0,0,0,0,0,0,0,0,0,0,0,0,0,0,0,0,0,0,0,0,0,0,0,-0.1618,-0.1619,0,-0.168,-0.168,-0.1681,-0.1714,-0.1714,-0.1714,-0.1715,-0.1761,-0.1762,-0.1763,0,0,0,0,0,0,0,0,0,0,0,0,0,-0.1528,-0.153,-0.1618,-0.1619,-0.162,-0.168,-0.168,-0.1681,-0.1714,-0.1714,-0.1714,-0.1715,-0.176,-0.1761,-0.1763,0,0,0,0,0,0,0,0,0,0,0,0,0,-0.1575,-0.153,-0.1618,-0.1645,-0.1648,-0.1679,-0.168,-0.1681,-0.1714,-0.1714,-0.1715,-0.1715,-0.176,-0.1761,-0.1763,-0.1765,0,0,-0.1767,-0.1768,0,0,0,0,0,0,0,0,-0.1572,-0.1578,-0.164,-0.1643,-0.1647,-0.1691,-0.1666,-0.1709,-0.1714,-0.1687,-0.1715,-0.1715,-0.1737,-0.174,-0.1749,-0.1768,-0.1769,-0.1768,-0.1768,-0.1769,-0.177,0,0,0,0,0,0,0,-0.1569,-0.1575,-0.1641,-0.1641,-0.1645,-0.1654,-0.166,-0.1674,-0.1708,-0.1689,-0.1692,-0.1702,-0.1738,-0.1747,-0.175,-0.177,-0.1768,-0.1769,-0.177,-0.177,-0.1857,-0.1858,0,0,0,0,0,0,-0.1565,-0.1572,-0.1639,-0.1643,-0.1611,-0.1655,-0.1663,-0.1675,-0.1708,-0.1714,-0.1701,-0.1703,-0.1744,-0.1748,-0.1752,-0.182,-0.1769,-0.1771,-0.1771,-0.1855,-0.1857,-0.1859,0,0,0,0,0,0,-0.1562,-0.157,-0.1637,-0.161,-0.1619,-0.1657,-0.167,-0.1676,-0.1714,-0.1718,-0.1723,-0.1736,-0.1745,-0.175,-0.1788,-0.1819,-0.1771,-0.1773,-0.1854,-0.1856,-0.1858,-0.1915,0,0,0,0,0,0,-0.156,-0.1569,-0.159,-0.161,-0.1621,-0.1673,-0.167,-0.1677,-0.1718,-0.1721,-0.1748,-0.1751,-0.1746,-0.1786,-0.179,-0.1821,-0.1774,-0.1852,-0.1855,-0.1857,-0.1912,-0.1919,-0.1925,0,0,0,0,0,-0.1556,-0.1578,-0.1591,-0.16,-0.1645,-0.1674,-0.1681,-0.1707,-0.172,-0.1741,-0.1761,-0.1752,-0.1805,-0.1789,-0.1793,-0.1824,-0.1851,-0.1854,-0.1857,-0.1908,-0.1917,-0.1925,0,0,0,0,0,0,-0.1551,-0.1584,-0.1599,-0.1631,-0.166,-0.1681,-0.1708,-0.1725,-0.1758,-0.177,-0.1771,-0.1776,-0.182,-0.1816,-0.1798,-0.1857,-0.1826,-0.183,-0.1864,-0.1873,-0.1879,-0.1871,-0.1775,0,0,0,0,0,-0.156,-0.1587,-0.1616,-0.1646,-0.1663,-0.1692,-0.1714,-0.1733,-0.1758,-0.1775,-0.1794,-0.1814,-0.1832,-0.1848,-0.1861,-0.1896,-0.1869,-0.1919,-0.1926,-0.1932,-0.1928,-0.1917,-0.1922,-0.1869,-0.1869,-0.1869,0,0,-0.1567,-0.159,-0.1607,-0.1648,-0.1673,-0.1706,-0.1707,-0.1748,-0.1781,-0.1773,-0.1831,-0.1841,-0.1847,-0.1884,-0.1904,-0.1888,-0.1933,-0.1936,-0.194,-0.1933,-0.1921,-0.1926,-0.193,-0.1871,-0.187,-0.187,0,0,-0.1584,-0.1616,-0.1643,-0.1672,-0.1717,-0.1735,-0.1754,-0.1794,-0.182,-0.1869,-0.1871,-0.1899,-0.1937,-0.194,-0.1946,-0.2,-0.197,-0.2014,-0.2045,-0.2035,-0.2039,-0.2042,-0.2011,-0.2011,-0.2018,-0.2018,-0.2019,0,-0.1595,-0.1629,-0.1656,-0.1689,-0.1718,-0.1752,-0.1787,-0.1818,-0.1868,-0.1887,-0.1897,-0.1948,-0.1958,-0.1987,-0.201,-0.2014,-0.1998,-0.2013,-0.2043,-0.2045,-0.2047,-0.2015,-0.2014,-0.2022,-0.2021,-0.2021,-0.2021,0,-0.1622,-0.1663,-0.1683,-0.1735,-0.177,-0.1808,-0.185,-0.1892,-0.1928,-0.1951,-0.2,-0.2013,-0.2036,-0.2052,-0.2052,-0.2079,-0.2058,-0.2051,-0.2018,-0.2056,-0.202,-0.2017,-0.2026,-0.2025,-0.2024,-0.2023,0,0,-0.1602,-0.1686,-0.1695,-0.1728,-0.1799,-0.1824,-0.1886,-0.1935,-0.1969,-0.2019,-0.2052,-0.2093,-0.2098,-0.2105,-0.2108,-0.2109,-0.2115,-0.2096,-0.2094,-0.2058,-0.2082,-0.1949,-0.1933,-0.2118,-0.2118,-0.2118,-0.2049,0,-0.1615,-0.1678,-0.172,-0.1786,-0.182,-0.1875,-0.1926,-0.1978,-0.2019,-0.2061,-0.208,-0.2115,-0.2119,-0.2136,-0.214,-0.2125,-0.2113,-0.2133,-0.2057,-0.2054,-0.1925,-0.1928,-0.2119,-0.2047,-0.2046,-0.2046,-0.2046,0,-0.1617,-0.1661,-0.1724,-0.1808,-0.1829,-0.1878,-0.1953,-0.2001,-0.2062,-0.2094,-0.2129,-0.2144,-0.2165,-0.2159,-0.2141,-0.2157,-0.2125,-0.2104,-0.21,-0.1951,-0.1916,-0.2003,-0.2041,-0.2042,-0.2042,-0.2042,-0.2042,0,-0.1566,-0.166,-0.1709,-0.174,-0.1838,-0.1882,-0.1938,-0.2011,-0.2046,-0.2112,-0.2135,-0.2164,-0.2173,-0.2156,-0.2123,-0.2139,-0.2079,-0.2087,-0.1928,-0.1918,-0.2035,-0.2032,-0.2055,-0.2055,-0.2055,-0.2055,-0.2056,0,-0.154,-0.1583,-0.1696,-0.1719,-0.178,-0.1863,-0.1926,-0.1983,-0.2054,-0.2075,-0.2145,-0.2143,-0.2175,-0.2148,-0.2119,-0.2002,-0.207,-0.1918,-0.1888,-0.2061,-0.2062,-0.2032,-0.2031,-0.2053,-0.2053,-0.2054,-0.2054,0,-0.1465,-0.154,-0.1604,-0.172,-0.1757,-0.18,-0.1913,-0.1943,-0.2031,-0.2057,-0.2077,-0.2127,-0.2086,-0.2081,-0.2035,-0.1969,-0.1891,-0.183,-0.1997,-0.1979,-0.1739,-0.1742,-0.1645,-0.164,-0.1636,-0.1632,-0.1629,0,-0.1428,-0.1455,-0.1584,-0.1619,-0.1675,-0.1757,-0.1799,-0.1911,-0.1936,-0.2016,-0.2003,-0.2008,-0.2017,-0.1833,-0.1859,-0.177,-0.175,-0.1702,-0.1738,-0.1715,-0.1696,-0.1706,-0.1714,-0.1621,-0.162,-0.1619,-0.1618,0,-0.1348,-0.1409,-0.1454,-0.153,-0.1589,-0.1641,-0.1715,-0.1721,-0.1822,-0.1925,-0.1867,-0.1829,-0.177,-0.1724,-0.1658,-0.1605,-0.1736,-0.1654,-0.1664,-0.1698,-0.1685,-0.1673,-0.1686,-0.1602,-0.1604,-0.1606,-0.1607,0,-0.1283,-0.1298,-0.1363,-0.141,-0.148,-0.1486,-0.1554,-0.1571,-0.1605,-0.1711,-0.168,-0.1688,-0.1741,-0.1635,-0.1578,-0.151,-0.1494,-0.1454,-0.1474,-0.1492,-0.1474,-0.1438,-0.1236,0,0,0,0,0,-0.1206,-0.1198,-0.1237,-0.1272,-0.1337,-0.1367,-0.1466,-0.1534,-0.1641,-0.1553,-0.1613,-0.1552,-0.147,-0.148,-0.1373,-0.1502,-0.1498,-0.1373,-0.1464,-0.1514,-0.1533,-0.1527,0,0,0,0,0,0,-0.1148,-0.1174,-0.1182,-0.1131,-0.113,-0.1171,-0.1225,-0.1307,-0.1277,-0.1396,-0.1354,-0.1448,-0.1385,-0.1485,-0.1331,-0.1333,-0.1357,-0.1396,-0.1392,-0.1504,-0.1521,-0.1535,-0.1535,0,0,0,0,0]},{"header":{"parameterUnit":"m.s-1","parameterCategory":2,"la1":30.2991,"la2":30.254,"lo1":-89.0895,"lo2":-89.0444,"dy":0.0017,"dx":0.0017,"nx":28,"ny":28,"refTime":"2024-04-02T21:00:00:Z","depth":"4","parameterNumber":3,"parameterNumberName":"V-component_of_CURRENTS"},"data":[0,0,0,0,0,0,0,0,0,0,0,0,0,0,0,0,0,0,0,0,0,0,0,0,0,0,0,0,0,0,0,0,0,0,0,0,0,0,0,0,0,0,0,0,0,0,0,0,0,0,0,0,0,0,0,0,0,0,-0.0265,-0.0265,0,-0.0217,-0.0216,-0.0216,-0.0184,-0.0184,-0.0184,-0.0183,-0.01,-0.0098,-0.0096,0,0,0,0,0,0,0,0,0,0,0,0,0,-0.0296,-0.0296,-0.0265,-0.0265,-0.0264,-0.0217,-0.0216,-0.0216,-0.0184,-0.0184,-0.0183,-0.0183,-0.0101,-0.0098,-0.0096,0,0,0,0,0,0,0,0,0,0,0,0,0,-0.0268,-0.0296,-0.0265,-0.0243,-0.0241,-0.0217,-0.0216,-0.0215,-0.0184,-0.0184,-0.0183,-0.0183,-0.0102,-0.0099,-0.0096,-0.0081,0,0,-0.0086,-0.0085,0,0,0,0,0,0,0,0,-0.027,-0.0267,-0.0247,-0.0244,-0.0242,-0.0207,-0.0197,-0.0169,-0.0184,-0.0205,-0.0183,-0.0183,-0.0133,-0.0127,-0.0119,-0.0077,-0.0074,-0.0086,-0.0084,-0.0083,-0.0082,0,0,0,0,0,0,0,-0.0272,-0.0269,-0.0245,-0.0246,-0.0243,-0.0224,-0.022,-0.0191,-0.017,-0.0203,-0.0201,-0.0196,-0.0131,-0.0122,-0.0116,-0.0072,-0.0086,-0.0083,-0.0081,-0.008,-0.001,-0.001,0,0,0,0,0,0,-0.0281,-0.0271,-0.0247,-0.0244,-0.0256,-0.0224,-0.0219,-0.0218,-0.0171,-0.0164,-0.0197,-0.0195,-0.0127,-0.012,-0.0113,-0.0089,-0.0083,-0.008,-0.0078,-0.001,-0.001,-0.001,0,0,0,0,0,0,-0.0282,-0.028,-0.0249,-0.0257,-0.0251,-0.0224,-0.0222,-0.0217,-0.0209,-0.0166,-0.0159,-0.0194,-0.0127,-0.0118,-0.0087,-0.0086,-0.0078,-0.0076,-0.001,-0.001,-0.001,-0.0044,0,0,0,0,0,0,-0.0283,-0.028,-0.0286,-0.0257,-0.0251,-0.024,-0.0222,-0.0216,-0.0207,-0.0204,-0.0162,-0.0154,-0.0126,-0.0092,-0.0084,-0.0082,-0.0073,-0.001,-0.001,-0.001,-0.0043,-0.0045,-0.0047,0,0,0,0,0,-0.0285,-0.0292,-0.0286,-0.0284,-0.0259,-0.0241,-0.0236,-0.0215,-0.0207,-0.0206,-0.0174,-0.0155,-0.0086,-0.0089,-0.008,-0.0077,-0.001,-0.001,-0.001,-0.0042,-0.0045,-0.0047,0,0,0,0,0,0,-0.0309,-0.0289,-0.0282,-0.0284,-0.0267,-0.0236,-0.0235,-0.0219,-0.0194,-0.0193,-0.0152,-0.0141,-0.0116,-0.0092,-0.0097,-0.0057,-0.0046,-0.0044,-0.0074,-0.0076,-0.0078,-0.0087,-0.0071,0,0,0,0,0,-0.0318,-0.032,-0.0295,-0.0298,-0.0292,-0.0265,-0.0257,-0.0242,-0.0215,-0.0204,-0.0174,-0.014,-0.0109,-0.009,-0.0062,-0.0038,-0.0008,-0.0031,-0.0033,-0.0035,-0.0036,0.0014,0.0017,-0.001,-0.001,-0.001,0,0,-0.0329,-0.0318,-0.032,-0.0303,-0.029,-0.0285,-0.026,-0.0251,-0.0243,-0.0199,-0.0181,-0.0148,-0.0105,-0.0078,-0.0065,-0.0058,-0.0013,-0.0035,-0.0037,-0.0037,0.0015,0.0017,0.002,-0.001,-0.001,-0.001,0,0,-0.0352,-0.0343,-0.0353,-0.034,-0.0324,-0.0305,-0.0305,-0.0277,-0.0261,-0.0239,-0.0204,-0.0168,-0.0127,-0.009,-0.0066,-0.0063,-0.0028,-0.0059,-0.0072,-0.0023,-0.0021,-0.0018,0.0019,0.0025,-0.0057,-0.0057,-0.0057,0,-0.0368,-0.0376,-0.0353,-0.0356,-0.0351,-0.0317,-0.0323,-0.03,-0.0265,-0.025,-0.024,-0.0166,-0.0131,-0.0085,-0.0083,-0.0067,-0.0039,-0.0066,-0.0026,-0.0022,-0.0019,0.0018,0.0026,-0.0059,-0.0059,-0.0059,-0.0058,0,-0.0393,-0.0402,-0.0407,-0.04,-0.0388,-0.039,-0.0355,-0.0341,-0.032,-0.0291,-0.0248,-0.0193,-0.0149,-0.0131,-0.0105,-0.0063,-0.0052,-0.0037,-0.002,-0.0018,0.002,0.0029,-0.0061,-0.0061,-0.006,-0.006,0,0,-0.0425,-0.0427,-0.0431,-0.044,-0.0414,-0.041,-0.0392,-0.0366,-0.0355,-0.031,-0.0286,-0.0221,-0.0189,-0.016,-0.0117,-0.0071,-0.0022,-0.0048,-0.0045,-0.0014,0.0078,0.0066,0.0074,0.0,0.0002,0.0003,0.0093,0,-0.0457,-0.0483,-0.0468,-0.049,-0.0497,-0.0462,-0.0449,-0.0416,-0.038,-0.0346,-0.0276,-0.0238,-0.02,-0.0178,-0.0124,-0.0048,-0.0001,-0.0049,0.0073,0.0077,0.0065,0.0084,0.0007,0.01,0.0102,0.0103,0.0104,0,-0.0486,-0.05,-0.0532,-0.0538,-0.0538,-0.0543,-0.0519,-0.0502,-0.0436,-0.0405,-0.0344,-0.0289,-0.0209,-0.0182,-0.0045,-0.0079,-0.0007,0.0054,0.0059,0.0066,0.0081,0.01,0.012,0.0119,0.0118,0.0117,0.0116,0,-0.0522,-0.0545,-0.0578,-0.0578,-0.0574,-0.0583,-0.0576,-0.0524,-0.0508,-0.0441,-0.0416,-0.0315,-0.0261,-0.0158,-0.003,-0.0037,0.0119,0.0127,0.0186,0.0186,0.0184,0.018,0.0222,0.0222,0.0222,0.0221,0.0221,0,-0.0553,-0.0582,-0.0605,-0.0622,-0.0659,-0.0631,-0.0648,-0.062,-0.0569,-0.0542,-0.0454,-0.0401,-0.0252,-0.0142,-0.0036,0.0102,0.0119,0.0188,0.0212,0.0166,0.016,0.019,0.0185,0.0225,0.0224,0.0223,0.0223,0,-0.0583,-0.0599,-0.0645,-0.0668,-0.0681,-0.0706,-0.071,-0.0708,-0.0654,-0.0612,-0.0592,-0.0457,-0.0311,-0.0163,0.0018,0.0092,0.0223,0.0267,0.0203,0.0221,0.0257,0.0249,0.0337,0.0338,0.0338,0.0338,0.0339,0,-0.06,-0.0628,-0.0692,-0.0729,-0.0749,-0.078,-0.0796,-0.076,-0.0742,-0.0638,-0.0613,-0.0469,-0.0366,-0.0114,0.003,0.0229,0.0254,0.031,0.0287,0.0256,0.0271,0.0263,0.0255,0.0339,0.0339,0.0339,0.0339,0,-0.0631,-0.0665,-0.0703,-0.0781,-0.0826,-0.086,-0.0872,-0.0861,-0.0793,-0.0752,-0.0606,-0.0461,-0.0295,-0.0106,0.0049,0.019,0.0265,0.0314,0.0314,0.0294,0.0259,0.0272,0.0264,0.0341,0.034,0.034,0.034,0,-0.0659,-0.07,-0.076,-0.0821,-0.0882,-0.0909,-0.0914,-0.0865,-0.0831,-0.0698,-0.065,-0.0456,-0.0335,-0.0125,0.0019,0.0153,0.0181,0.021,0.0216,0.0217,0.0149,0.0086,0.014,0,0,0,0,0,-0.0675,-0.0722,-0.0791,-0.0855,-0.0913,-0.0939,-0.0945,-0.0928,-0.0862,-0.0761,-0.0695,-0.053,-0.0283,-0.0173,-0.0038,-0.0003,0.0177,0.0154,0.0206,0.0348,0.0346,0.0286,0,0,0,0,0,0,-0.0688,-0.0758,-0.0791,-0.0862,-0.0905,-0.0955,-0.0957,-0.0915,-0.0841,-0.0755,-0.0618,-0.0518,-0.0283,-0.0357,-0.0041,0.0001,0.0046,0.0278,0.028,0.0348,0.0347,0.0346,0.0284,0,0,0,0,0]}]]